Terug naar catalogus

RADUGA 28

ActiefMilitairGEO
NORAD 21821·PAYLOAD·🇷🇺 Russia

Gelanceerd Dec 19, 1991 vanaf Baikonur Cosmodrome

Loading…

TLE

VersSource: Space-Track

Epoch: Sep 14, 2026, 22:55 UTC

1 21821U 91087A   26257.95500392 -.00000179  00000-0  00000-0 0  9992
2 21821  13.2989 340.3992 0005332 199.0164 238.1476  1.00362636127223

Volg RADUGA 28 in realtime met AllMySat

Download on the App Store